Погода Томпо

Погода Томпо : погода сейчас, прогноз погоды и архив. Всё, что Вы хотите узнать о погоде Томпо!

Хотите узнать прогноз погоды Томпо? Тогда Вам сюда: Погода Томпо

Поиск расширенной информации на нашем сайте:

Другие новости

Новости СМИ2

Главная страница сайта

Новости сайта

03.07.2017

Напоминаем, что на нашем специализированном сайте Метеоцентр.Азия вы можете получить высокодетализированные автоматические прогнозы погоды по пунктам России, СНГ и мира в авиационном формате (включающие направление и скорость ветра, видимость, явления погоды, количество и форму облачности, нижнюю и верхнюю границу облачности).


Погода Томпо - сегодня

Время (UTC), дата Ветер
(°,м/с) 
Видим.   Явления Облачность Т
(°С)
Тd
(°С)
f(%) Тe
(°С)
Pmin
(гПа)
dP
(гПа)
Po
(мм)
O2
(г/м3)
Тmin Tmax R s Состояние
почвы
15 18.04.18 тихо ()   20000 м    6/3 1000 м верхняя 
[Sc|Ci fib]
-9.4 -13.4 73 -9  1008.7  1.1  718  301           
18 18.04.18 тихо ()   20000 м    6/3 1000 м верхняя 
[Sc|Ci fib]
-10.1 -12.1 85 -10  1010  1.1  719  302           
21 18.04.18 тихо ()   20000 м    3/3 1000 м верхняя 
[Sc|Ci fib]
-12.5 -13.8 90 -13  1011.7  1.2  720  305  -12.7      17  равномерный
сухой снег
100% 
00 19.04.18 тихо ()   20000 м    ясно 
-5.5 -11.1 65 -6  1010.2  -0.1  720  297  -12.8         
03 19.04.18 тихо ()   20000 м    3/3 600 м верхняя 
[Cu hum|Ci fib]
+1 -8.6 49 +1  1008.4  -0.7  719  290           
06 19.04.18 тихо ()   20000 м    3/0 верхняя 
[Ci fib]
+3.8 -8 42 +4  1006.8  -0.9  719  286           
12 19.04.18 тихо ()   20000 м    6/0 средняя, верхняя 
[Ac trans|Ci fib]
-2.8 -9.4 60 -3  1008.6  0.9  719  294           
15 19.04.18 340 (С) 20000 м    6/0 средняя, верхняя 
[Ac trans|Ci fib]
-7.6 -12.1 70 -7  1010.7  1.2  720  299           
18 19.04.18 330 (СЗ) 20000 м    3/0 верхняя 
[Ci fib]
-11.1 -13.1 85 -11  1012.2  0.7  721  304           
21 19.04.18 340 (С) 20000 м    3/0 верхняя 
[Ci fib]
-13 -14.3 90 -13  1013.5  0.8  721  306  -13.4      16  равномерный
сухой снег
100% 
00 20.04.18 360 (С) 20000 м    3/0 верхняя 
[Ci fib]
-6.6 -12.7 62 -6  1011.6  -0.5  721  299  -14.2         
03 20.04.18 350 (С) 20000 м    3/0 верхняя 
[Ci fib]
+1 -9.6 45 +2  1008.9  -1.3  720  290           
06 20.04.18 тихо ()   20000 м    4/0 верхняя 
[Cs]
+4.9 -9 36 +5  1007.3  -0.8  719  285           
12 20.04.18 тихо ()   20000 м    10/0 средняя, верхняя 
[As trans|Cs]
+1.2 -8.3 49 +1  1008.7  -0.9  720  290           
15 20.04.18 тихо ()   20000 м    9/4 1000 м средняя 
[Sc|Ac As]
-2.2 -6.5 72 -2  1010.1  0.7  720  293           
18 20.04.18 тихо ()   20000 м    10/8 1000 м средняя 
[Sc|Ac As]
-3.4 -5.9 83 -3  1011  0.6  721  295           
03 21.04.18 тихо ()   10 км  слаб. дождь со снегом  10/6 1000 м средняя 
[Sc|Ac As]
+1.9 -3.1 69 +2  1010.9  0.1  721  289           
06 21.04.18 180 (Ю) 10 км  слаб. дождь со снегом  10/10 300 м 
[Frnb|Ns]
-0.6 -4.8 73 -2  1012.7  1.3  722  292           
12 21.04.18 100 (В) 36  <0100 м  {снег, дождь}  10/10 2000 м 
[Sc]
-11.6   1016  1.2  724             
15 21.04.18 120 (ЮВ) 20000 м    10/10 1000 м 
[Sc]
-4.1 -9.5 66 -4  1016.8  0.6  725  297           
18 21.04.18 тихо ()   20000 м    10/10 1000 м 
[Sc]
-6.5 -11.1 70 -7  1018  0.7  725  300           
21 21.04.18 110 (В) 20000 м    10/10 1000 м 
[Sc]
-6.4 -12.9 60 -6  1019  726  301  -7.1      16  равномерный
сухой снег
100% 
00 22.04.18 140 (ЮВ) 20000 м    10/3 1000 м средняя, верхняя 
[Sc|As trans|Cs]
-3.7 -11.8 53 -3  1019.1  0.7  727  298           
03 22.04.18 тихо ()   20000 м    10/3 1000 м средняя, верхняя 
[Sc|As trans|Cs]
-1.6 -9.8 54 -2  1018.8  727  295           
06 22.04.18 тихо ()   20000 м    9/8 600 м верхняя 
[Cu Sc|Ci fib]
-0.4 -10.1 48 -0  1018.4  -0.2  726  294           
Время (UTC), дата Ветер
(°,м/с) 
Видим.   Явления Облачность Т
(°С)
Тd
(°С)
f(%) Тe
(°С)
Pmin
(гПа)
dP
(гПа)
Po
(мм)
O2
(г/м3)
Тmin Tmax R s Состояние
почвы

Для получения пояснительной информации подведите курсор к названию столбца.

ПОГОДА Томпо - архив

Всё, что Вы хотите узнать о погоде Томпо - удобно и подробно!

Выберите нужную дату (начиная с 1 января 2015* года) и нажмите кнопку "Найти".
Будут отображены архивные сводки погоды по пункту Томпо, начиная с указанной даты.


Отображать данные в формате CSV (для использования в таблицах Excel)


Внимание! Наш архив погоды предназначен исключительно для личного некоммерческого использования в познавательных целях. Если Вам необходимы официальные справки о состоянии погоды (для производственных, юридических, коммерческих и т.п. целей), обращайтесь в органы Росгидромета.

*Примечание: данная дата относится к архиву по метеостанциям СССР (Россия, СНГ, Балтия).
Архив по метеостанциям Зарубежной Европы и Азии (кроме Китая) хранится 10 дней, по другим регионам земного шара (Китай, Африка, Америка, Австралия, Океания) - 1 день.

Томпо - район местоположения метеостанции


Название, широта, долгота, высота метеостанции:
Томпо 63.9°ш. 135.9°д. 402 м над ур. моря [Российская Федерация]

Дополнительная информация

В oтличие oт бoльшинства пoгoдных сайтoв мы публикуем пoдрoбную метеoинфoрмацию в детальнoм прoфессиoнальнoм фoрмате.

Характеристики температуры и влажнoсти вoздуха измеряются на высoте 2 м в тени вдали oт зданий и деревьев.
Скoрoсть ветра измеряется на высoте 10 м (на урoвне рoста челoвека скoрoсть ветра ниже в 1.5-2 раза). Если метеoстанция нахoдится в гoрoде или в лесу, тo скoрoсть ветра занижена на 2-4 м/с пo сравнению с oткрытым местoм. Скoрoсть ветра над акватoриями крупных рек и oзёр, а также на вершинах хoлмoв на 2-5 м/с выше, чем в oбычных услoвиях.
Атмoсфернoе давление в разных тoчках местнoсти мoжет значительнo oтличаться oт давления на метеoстанции, в зависимoсти oт услoвий рельефа (при пoдъёме на 10 м давление пoнижается примернo на 1 мм рт.ст.).